Regional Weather Roundup
Issued by NWS Little Rock, AR

Home | Current Version | Previous Version | Graphics & Text | Print | Product List | Glossary On
Versions: 1 2 3 4 5 6 7 8 9 10 11 12 13 14 15 16 17 18 19 20 21 22 23 24 25 26 27 28 29 30 31 32 33 34 35 36 37 38 39 40 41 42 43 44 45 46 47 48 49 50
000
ASUS44 KLZK 211405
RWRLZK

WEATHER ROUNDUP FOR ARKANSAS
NATIONAL WEATHER SERVICE LITTLE ROCK AR
900 AM CDT TUE OCT 21 2014

NOTE: "FAIR" INDICATES FEW OR NO CLOUDS BELOW 12,000 FEET WITH NO
SIGNIFICANT WEATHER AND/OR OBSTRUCTIONS TO VISIBILITY.

ARZ001-003-010-029-211500-
NORTHWEST ARKANSAS

CITY           SKY/WX    TMP DP  RH WIND       PRES   REMARKS
FAYETTEVILLE   FOG       48  48 100 CALM      30.15R VSB 1/4
FORT SMITH     MOSUNNY   61  58  90 NE5       30.13R
HARRISON       SUNNY     57  57 100 CALM      30.15R
BENTONVILLE    CLOUDY    52  48  87 S3        30.15R VSB<1/4
ROGERS         CLOUDY    54  53  97 SE3       30.16R VSB<1/4
SILOAM SPGS    CLOUDY    52  46  82 CALM      30.16R VSB<1/4
HIGHFILL       FOG       50  50 100 CALM      30.14R VSB<1/4
SPRINGDALE     FOG       52  52 100 CALM      30.17R VSB 1/4
$$

ARZ004-005-016-211500-
NORTH CENTRAL ARKANSAS

CITY           SKY/WX    TMP DP  RH WIND       PRES   REMARKS
BATESVILLE     SUNNY     57  55  94 NW5       30.12S
FLIPPIN        CLOUDY    52  46  82 CALM      30.14R VSB<1/4
MTN HOME       FOG       53  53 100 CALM      30.13R VSB 1/4
$$

ARZ040-041-211500-
WEST CENTRAL ARKANSAS

CITY           SKY/WX    TMP DP  RH WIND       PRES   REMARKS
MENA           PTSUNNY   61  59  94 CALM      30.14R
MOUNT IDA      MOSUNNY   57  56  96 CALM      30.11R
$$

ARZ009-017-025-026-028-211500-
NORTHEAST ARKANSAS

CITY           SKY/WX    TMP DP  RH WIND       PRES   REMARKS
CORNING        FAIR      54  52  94 N3        30.12R
JONESBORO      SUNNY     61  51  70 CALM      30.10R
NEWPORT        SUNNY     59  55  86 NW3       30.12R
WALNUT RIDGE   SUNNY     55  48  76 NW3       30.10S
BLYTHEVILLE    SUNNY     60  53  77 N6        30.10R
NW BLYTHEVILLE SUNNY     59  52  77 CALM      30.10R
$$

ARZ022-023-033-042-044-211500-
CENTRAL ARKANSAS

CITY           SKY/WX    TMP DP  RH WIND       PRES   REMARKS
LITTLE ROCK    SUNNY     64  57  78 N3        30.13R
N LITTLE ROCK  SUNNY     62  58  88 N3        30.13R
JACKSONVILLE   SUNNY     59  57  94 W3        30.12R
SEARCY         SUNNY     61  56  83 N6        30.13R
HOT SPRINGS    LGT RAIN  57  57 100 CALM      30.13R VSB 1/4
RUSSELLVILLE   FOG       54  54 100 CALM      30.13R VSB<1/4
$$

ARZ036-211500-
EAST ARKANSAS

CITY           SKY/WX    TMP DP  RH WIND       PRES   REMARKS
WEST MEMPHIS   SUNNY     59  57  93 CALM      30.09R
$$

ARZ050-053-066-070-073-211500-
SOUTHWEST ARKANSAS

CITY           SKY/WX    TMP DP  RH WIND       PRES   REMARKS
ARKADELPHIA    FAIR      60  60 100 CALM      30.13R
CAMDEN         PTSUNNY   59  57  94 CALM      30.12R
TEXARKANA      SUNNY     63  58  83 CALM      30.12R
EL DORADO      CLOUDY    61  58  90 N3        30.12R
DE QUEEN       PTSUNNY   56  56 100 CALM      30.11R FOG
$$

ARZ056-057-069-211500-
SOUTHEAST ARKANSAS

CITY           SKY/WX    TMP DP  RH WIND       PRES   REMARKS
PINE BLUFF     SUNNY     61  58  90 N5        30.11R
STUTTGART      SUNNY     59  57  94 N6        30.12R
MONTICELLO     SUNNY     65  58  78 VRB3      30.11R

$$





USA.gov is the U.S. government's official web portal to all federal, state and local government web resources and services.